Regional Weather Roundup
Issued by NWS

Home | Current Version | Previous Version | Graphics & Text | Print | Product List | Glossary On
Versions: 1 2 3 4 5 6 7 8 9 10 11 12 13 14 15 16 17 18 19 20 21 22 23 24 25 26 27 28 29 30 31 32 33 34 35 36 37 38 39 40 41 42 43 44 45 46 47 48 49 50
000
ASUS43 KMKX 242311
RWRWI

WISCONSIN REGIONAL WEATHER ROUNDUP
NATIONAL WEATHER SERVICE MILWAUKEE/SULLIVAN WI
600 PM CDT THU MAY 24 2018

NOTE: "FAIR" INDICATES FEW OR NO CLOUDS BELOW 12,000 FEET WITH NO
SIGNIFICANT WEATHER AND/OR OBSTRUCTIONS TO VISIBILITY.

WIZ001-002-006>008-014>016-023>028-250000-
NORTHWEST WISCONSIN

CITY           SKY/WX    TMP DP  RH WIND       PRES   REMARKS
SUPERIOR ARPT  CLOUDY    55  55  99 NE6       29.89F FOG
ASHLAND        FAIR      71  68  90 VRB3      29.91F
HAYWARD        FAIR      76  70  82 E5        29.91F
SIREN          FAIR     N/A N/A N/A SW16G25     N/A
CUMBERLAND     FAIR      84  54  34 S21       29.91F HX  83
RICE LAKE      FAIR      86  57  36 S13       29.92F HX  85
CHETEK         FAIR      88  63  43 SW13G21   29.91F HX  88
LADYSMITH      FAIR      85  62  45 S15G25    29.94F HX  86
EAU CLAIRE     FAIR      87  63  44 S16       29.91F HX  88
MENOMONIE      FAIR      89  56  32 S17       29.91F HX  87
NEW RICHMOND   FAIR      87  55  34 SW15G21   29.89F HX  85
OSCEOLA        FAIR      90  56  31 S16       29.90F HX  88
$$

WIZ003>005-009-010-017-018-250000-
NORTH CENTRAL WISCONSIN

CITY           SKY/WX    TMP DP  RH WIND       PRES   REMARKS
MANITOWISH WTR TSTM      70  70 100 W10G18    29.98R
ARBOR VITAE    FAIR      80  64  57 S9        29.96F HX  81
WOODRUFF       FAIR      80  64  57 S9        29.96F HX  81
RHINELANDER    FAIR      85  63  47 S14G21    29.98F HX  86
EAGLE RIVER    FAIR      82  58  45 SW10G16   29.97F HX  82
LAND O LAKES   FAIR      81  61  50 S7        29.99F HX  82
PHILLIPS       PTSUNNY   84  62  48 S17G24    29.93F HX  85
TOMAHAWK       FAIR      81  63  54 S6        29.97F HX  82
MEDFORD        FAIR      84  62  47 S18       29.97F HX  84
MERRILL        FAIR      84  63  48 SW12      29.98F HX  85
$$

WIZ029-030-035-036-043>047-250000-
CENTRAL WISCONSIN

CITY           SKY/WX    TMP DP  RH WIND       PRES   REMARKS
WAUSAU         FAIR      84  60  44 S15G23    29.96F HX  84
MOSINEE        PTSUNNY   82  59  44 SW14G20   30.00F HX  82
MARSHFIELD     FAIR      83  61  47 S12       29.98S HX  83
STEVENS POINT  FAIR      84  59  42 S10G21    29.99F HX  83
WAUPACA        FAIR      87  58  37 S10       29.99F HX  86
WAUTOMA        FAIR      85  61  44 S13G18    29.99F HX  85
WISC RAPIDS    FAIR      84  61  45 SW9       29.99F HX  84
CAMP DOUGLAS   PTSUNNY   84  63  48 S9        29.98F HX  85
$$

WIZ011>013-019>022-031-037>040-048>050-250000-
NORTHEAST WISCONSIN

CITY           SKY/WX    TMP DP  RH WIND       PRES   REMARKS
ANTIGO         FAIR      81  61  49 S13       29.99F HX  82
SHAWANO        FAIR      85  60  41 S7        29.98F HX  85
OCONTO         FAIR      78  59  52 S9        29.99S
STURGEON BAY   FAIR      72  52  49 S15       30.01F
GREEN BAY      FAIR      83  61  47 S15       29.99F HX  83
MANITOWOC      FAIR      72  54  53 S15       30.03F
APPLETON       MOSUNNY   82  54  36 S13       29.99F HX  81
CLINTONVILLE   FAIR      85  57  38 S14       29.98F HX  84
OSHKOSH        FAIR      83  62  49 S14       30.00F HX  84
$$

WIZ032>034-041-042-053>061-250000-
SOUTHWEST WISCONSIN

CITY           SKY/WX    TMP DP  RH WIND       PRES   REMARKS
LA CROSSE      FAIR      88  65  46 S16       29.94F HX  90
SPARTA         FAIR      83  62  48 S9G16     29.97F HX  84
VIROQUA        PTSUNNY   85  65  49 S13G18    30.00F HX  87
BOSCOBEL       FAIR      88  64  44 S8        29.98F HX  89
PRAIRIE DU CHI FAIR      86  59  38 SE6       29.97F HX  86
PLATTEVILLE    FAIR      84  64  50 S10       30.02F HX  86
$$

WIZ056-057-062-063-064-067-068-250000-
SOUTH CENTRAL WISCONSIN

CITY           SKY/WX    TMP DP  RH WIND       PRES   REMARKS
REEDSBURG      FAIR      84  65  52 S12G18    30.00F HX  85
BARABOO/DELLS  FAIR      85  55  34 S12       30.01F HX  84
LONE ROCK      FAIR      85  65  51 S10       29.99F HX  86
MINERAL POINT  FAIR      86  63  45 S9        30.03F HX  87
MADISON        FAIR      85  60  42 SW8       30.01F HX  85
MIDDLETON      FAIR      86  58  38 S13       30.03F HX  85
WATERTOWN      FAIR      84  60  44 CALM      30.02F HX  84
MONROE         FAIR      82  55  39 SW7       30.04S HX  82
JANESVILLE     MOSUNNY   88  55  33 SW9       30.03F HX  86
$$

WIZ051-052-058>065-066-070>072-250000-
SOUTHEAST WISCONSIN

CITY           SKY/WX    TMP DP  RH WIND       PRES   REMARKS
MILWAUKEE      PTSUNNY   78  56  46 SE10      30.05F
WAUKESHA       SUNNY     82  55  39 S5        30.06F HX  82
MILWAUKEE/TIMM SUNNY     82  50  32 SE10      30.05F HX  81
RACINE         FAIR      76  53  44 S14G20    30.08F
BURLINGTON     FAIR      84  59  42 S6        30.05S HX  84
KENOSHA        FAIR      79  55  43 SE10      30.06F
FOND DU LAC    FAIR      84  59  42 S12       30.01F HX  84
SHEBOYGAN      FAIR      76  54  46 S14       30.04F
WEST BEND      FAIR      81  55  41 SE10      30.03F HX  80
JUNEAU         FAIR      83  59  44 S10       30.04F HX  83
$$

LSZ147-162-250000-
LAKE SUPERIOR

STATION/POSITION TIME  TEMP    WIND        PRES    WAVE
                       AIR SEA DIR/SP/G            HT/PER
                 (UTC) (F)     (DEG/KT/KT) (MB)    (FT/S)
W MID LAKE BUOY  2250   41 37  360/  6/  8 1013.6F   0
DEVILS ISLAND    2300   45      70/  6/  7 1013.4R
SAXON HARBOR     2230   62      CALM  /  1 1012.2F
$$

LMZ867-665-643>646-250000-
LAKE MICHIGAN

STATION/POSITION TIME  TEMP    WIND        PRES    WAVE
                       AIR SEA DIR/SP/G            HT/PER
                 (UTC) (F)     (DEG/KT/KT) (MB)    (FT/S)
N MID LAKE BUOY  2250   42 38  200/  8/ 12 1016.4F   1
NORTHPORT PIER   2240   62     160/  5/  8 1015.9F
KEWAUNEE LAKESHO 2242   53     170/ 13/ 15 1016.6F
SHEBOYGAN LAKESH 2300   60     180/ 19/ 20 1017.0F
PORT WASHINGTON  2240   64     180/  4/  6 1018.6F
ATWATER BUOY     2207   58 51  190/ 10/ 12 1018.0    2/21
MILWAUKEE LAKESH 2250   59     140/ 14/ 15   N/A
S MID LAKE BUOY  2250   60 41  140/  8/  8 1018.6F   0
KENOSHA   LAKESH 2300   64                 1017.6
$$

TC  - TEMPERATURE IN CELSIUS
VSB - VISIBILITY IN STATUTE MILES
WCI - WIND CHILL INDEX
HX  - HEAT INDEX




USA.gov is the U.S. government's official web portal to all federal, state and local government web resources and services.